TimeMST,TemperatureF,Dew PointF,Humidity,Sea Level PressureIn,VisibilityMPH,Wind Direction,Wind SpeedMPH,Gust SpeedMPH,PrecipitationIn,Events,Conditions,WindDirDegrees,DateUTC
12:53 AM,35.1,32.0,89,30.07,10.0,Calm,Calm,-,N/A,,Overcast,0,2012-11-25 07:53:00
1:53 AM,35.1,30.9,85,30.06,10.0,NNW,5.8,-,N/A,,Overcast,340,2012-11-25 08:53:00
2:53 AM,36.0,28.9,76,30.08,10.0,NNW,8.1,-,N/A,,Overcast,330,2012-11-25 09:53:00
3:53 AM,36.0,28.0,73,30.07,10.0,NNW,9.2,-,N/A,,Overcast,330,2012-11-25 10:53:00
4:53 AM,34.0,28.0,79,30.10,10.0,NNW,8.1,-,N/A,,Overcast,340,2012-11-25 11:53:00
5:53 AM,34.0,25.0,70,30.11,10.0,NNW,8.1,-,N/A,,Overcast,330,2012-11-25 12:53:00
6:53 AM,34.0,26.1,73,30.13,10.0,NNW,8.1,-,N/A,,Overcast,330,2012-11-25 13:53:00
7:53 AM,33.1,26.1,75,30.15,10.0,WSW,4.6,-,N/A,,Overcast,240,2012-11-25 14:53:00
8:53 AM,30.9,27.0,85,30.19,10.0,West,5.8,-,N/A,,Mostly Cloudy,260,2012-11-25 15:53:00
9:53 AM,34.0,24.1,67,30.21,10.0,NW,6.9,-,N/A,,Overcast,320,2012-11-25 16:53:00
10:53 AM,36.0,23.0,59,30.21,10.0,NW,5.8,-,N/A,,Overcast,320,2012-11-25 17:53:00
11:53 AM,36.0,23.0,59,30.20,10.0,West,6.9,-,N/A,,Overcast,280,2012-11-25 18:53:00
12:53 PM,39.9,21.0,47,30.19,10.0,West,5.8,-,N/A,,Mostly Cloudy,280,2012-11-25 19:53:00
1:53 PM,41.0,21.0,45,30.20,10.0,West,10.4,20.7,N/A,,Overcast,280,2012-11-25 20:53:00
2:53 PM,39.0,21.0,49,30.21,10.0,NW,10.4,-,N/A,,Scattered Clouds,320,2012-11-25 21:53:00
3:53 PM,39.0,19.9,46,30.23,10.0,WNW,15.0,-,N/A,,Overcast,300,2012-11-25 22:53:00
4:53 PM,35.1,21.9,59,30.27,10.0,West,9.2,-,N/A,,Overcast,280,2012-11-25 23:53:00
5:53 PM,34.0,23.0,64,30.30,10.0,NW,4.6,-,N/A,,Overcast,320,2012-11-26 00:53:00
6:53 PM,34.0,24.1,67,30.31,10.0,West,5.8,-,N/A,,Overcast,270,2012-11-26 01:53:00
7:53 PM,32.0,23.0,69,30.33,10.0,NNE,3.5,-,N/A,,Mostly Cloudy,20,2012-11-26 02:53:00
8:53 PM,30.0,23.0,75,30.35,10.0,Calm,Calm,-,N/A,,Partly Cloudy,0,2012-11-26 03:53:00
9:53 PM,28.0,21.9,78,30.37,10.0,South,3.5,-,N/A,,Scattered Clouds,190,2012-11-26 04:53:00
10:53 PM,28.0,21.9,78,30.37,10.0,ENE,3.5,-,N/A,,Scattered Clouds,70,2012-11-26 05:53:00
11:53 PM,27.0,23.0,85,30.38,10.0,Calm,Calm,-,N/A,,Overcast,0,2012-11-26 06:53:00